Sioux Falls, SD

1:53 AM CDT on August 23, 2017 (GMT -0500)
Foss

Weather History for KFSD - May, 2014

Change the Weather History Date:

Sunday, May 4, 2014

  Actual Average Record
Temperature  
Mean Temperature 47 °F 54 °F  
Max Temperature 57 °F 66 °F 91 °F (1949)
Min Temperature 36 °F 42 °F 17 °F (1967)
Degree Days  
Heating Degree Days 18 11  
Month to date heating degree days 69 47  
Since 1 July heating degree days 8087 7454  
Cooling Degree Days 0 0  
Month to date cooling degree days 0 0  
Year to date cooling degree days 0 5  
Moisture  
Dew Point 32 °F    
Average Humidity 60    
Maximum Humidity 76    
Minimum Humidity 43    
Precipitation  
Precipitation 0.10 in 0.11 in 1.92 in (1893)
Month to date precipitation 0.10 0.43  
Year to date precipitation 2.97 6.36  
Snow  
Snow 0.00 in 0.00 in T in (1944)
Month to date snowfall 0.0 0.2  
Since 1 July snowfall 45.3 44.7  
Snow Depth 0.00 in    
Sea Level Pressure  
Sea Level Pressure 30.02 in    
Wind  
Wind Speed 14 mph (ENE)    
Max Wind Speed 29 mph    
Max Gust Speed 33 mph    
Visibility 10 miles    
Events Rain    
T = Trace of Precipitation, MM = Missing Value Source: NWS Daily Summary

Daily Weather History Graph

Daily Weather History Graph

Search for Another Location

Airport or City:

Trip Planner

Search our weather history database for the weather conditions in past years. The results will help you decide how hot, cold, wet, or windy it might be!

Date:

Astronomy

May. 04, 2014 Rise Set
Actual Time 6:15 AM CDT 8:32 PM CDT
Civil Twilight 5:43 AM CDT 9:04 PM CDT
Nautical Twilight 5:04 AM CDT 9:44 PM CDT
Astronomical Twilight 4:20 AM CDT 10:28 PM CDT
Moon 10:39 AM CDT (5/4) 12:39 AM CDT (5/4)
Length of Visible Light 15h 21m
Length of Day
14h 17m
Waxing Crescent, 28% of the Moon is Illuminated
May 4
Waxing Crescent
May 6
First Quarter
May 14
Full
May 21
Last Quarter
May 28
New

Hourly Weather History & Observations

Time (CDT) Temp. Windchill Dew Point Humidity Pressure Visibility Wind Dir Wind Speed Gust Speed Precip Events Conditions
12:56 AM 46.9 °F - 36.0 °F 66% 30.02 in 10.0 mi NNE 9.2 mph - N/A   Overcast
1:56 AM 44.1 °F 36.2 °F 33.1 °F 65% 30.05 in 10.0 mi NE 18.4 mph 26.5 mph N/A   Overcast
2:56 AM 39.9 °F 32.5 °F 28.0 °F 63% 30.05 in 10.0 mi NE 12.7 mph - N/A   Partly Cloudy
3:56 AM 39.9 °F 32.9 °F 25.0 °F 55% 30.06 in 10.0 mi ENE 11.5 mph - N/A   Overcast
4:56 AM 37.0 °F 28.5 °F 30.0 °F 76% 30.07 in 9.0 mi NE 13.8 mph - 0.02 in Rain Rain
5:56 AM 37.0 °F 31.6 °F 30.9 °F 79% 30.10 in 10.0 mi NE 6.9 mph - 0.08 in   Overcast
6:56 AM 37.0 °F 30.4 °F 30.9 °F 79% 30.09 in 10.0 mi ENE 9.2 mph - 0.00 in   Overcast
7:56 AM 37.0 °F 27.4 °F 30.9 °F 79% 30.08 in 10.0 mi ENE 17.3 mph - N/A   Overcast
8:56 AM 37.9 °F 28.2 °F 30.9 °F 76% 30.08 in 10.0 mi East 18.4 mph - N/A   Overcast
9:56 AM 37.9 °F 28.5 °F 30.9 °F 76% 30.10 in 10.0 mi East 17.3 mph - N/A   Overcast
10:56 AM 39.9 °F 31.8 °F 30.9 °F 70% 30.09 in 10.0 mi East 15.0 mph - N/A   Overcast
11:56 AM 41.0 °F 33.1 °F 30.9 °F 67% 30.09 in 10.0 mi East 15.0 mph - N/A   Overcast
12:56 PM 46.0 °F 38.8 °F 33.1 °F 61% 30.06 in 10.0 mi ESE 18.4 mph 23.0 mph N/A   Overcast
1:56 PM 48.0 °F - 33.1 °F 56% 30.03 in 10.0 mi East 19.6 mph - N/A   Overcast
2:56 PM 51.1 °F - 34.0 °F 52% 30.00 in 10.0 mi East 18.4 mph - N/A   Mostly Cloudy
3:56 PM 54.0 °F - 32.0 °F 43% 29.97 in 10.0 mi ESE 19.6 mph 24.2 mph N/A   Mostly Cloudy
4:56 PM 54.0 °F - 35.1 °F 49% 29.94 in 10.0 mi ESE 19.6 mph - N/A   Mostly Cloudy
5:56 PM 55.0 °F - 34.0 °F 45% 29.94 in 10.0 mi ESE 17.3 mph - N/A   Mostly Cloudy
6:56 PM 53.1 °F - 33.1 °F 47% 29.95 in 10.0 mi ESE 12.7 mph - N/A   Mostly Cloudy
7:56 PM 52.0 °F - 32.0 °F 47% 29.94 in 10.0 mi ESE 15.0 mph - N/A   Overcast
8:56 PM 50.0 °F - 33.1 °F 52% 29.95 in 10.0 mi East 11.5 mph - N/A   Mostly Cloudy
9:56 PM 46.0 °F 41.0 °F 34.0 °F 63% 29.95 in 10.0 mi ENE 10.4 mph - N/A   Scattered Clouds
10:56 PM 44.1 °F 40.1 °F 34.0 °F 68% 29.99 in 10.0 mi NNE 6.9 mph - N/A   Scattered Clouds
11:56 PM 44.1 °F 40.1 °F 34.0 °F 68% 29.97 in 10.0 mi ENE 6.9 mph - N/A   Mostly Cloudy